Wind_Speed
69 73 76 79 83 86 87 88 86 80 76 73 71 69 67 66 65 64 63 62 61 60 59 57 56 55 54 53 51 53 60 72 85 90 91 89 87 86 85 83 80 76 71
73 76 79 82 85 86 86 85 81 78 75 73 71 68 65 63 61 61 60 59 60 60 60 59 58 57 57 55 53 50 50 55 70 86 94 93 91 90 87 86 84 80 76
76 78 81 83 85 84 84 82 80 76 72 68 63 58 54 51 49 48 47 46 47 50 53 55 56 57 58 59 57 54 50 48 52 67 87 96 95 92 90 88 86 83 80
77 80 82 83 84 83 83 80 75 69 64 60 58 55 53 51 49 47 46 44 43 43 44 46 48 52 55 58 60 59 55 51 48 51 67 87 97 96 92 89 88 85 82
78 80 82 83 83 82 81 74 67 62 60 59 58 57 55 54 52 51 49 47 45 44 44 44 43 45 48 53 57 59 58 54 50 48 52 68 89 97 96 91 89 87 83
79 81 82 82 82 81 75 67 63 61 60 59 59 58 57 56 54 53 50 48 46 45 44 44 44 43 43 46 51 56 57 56 53 50 49 55 73 90 97 95 90 88 84
80 81 81 81 81 76 68 64 62 61 60 60 59 59 58 56 54 51 48 46 44 43 43 43 43 44 44 43 46 50 54 55 53 51 49 50 60 78 93 97 93 89 85
80 80 80 81 77 70 65 64 63 62 61 61 60 59 58 55 52 49 47 46 45 45 45 44 43 42 42 43 43 46 50 52 52 50 47 47 52 66 84 95 96 92 88
79 79 80 78 72 66 64 64 63 62 61 61 61 59 56 53 50 48 47 46 46 46 46 45 43 41 39 40 41 43 45 48 49 47 45 44 46 55 71 88 96 96 92
79 78 78 74 68 65 64 63 63 62 62 62 60 58 54 52 50 48 48 48 48 48 47 46 43 40 38 37 38 40 42 45 46 44 42 40 42 46 57 75 90 96 95
77 77 76 70 65 63 63 63 63 62 62 60 58 56 53 52 51 51 51 51 51 50 48 46 44 40 36 35 35 36 38 41 43 41 39 38 38 41 47 60 77 89 94
76 77 73 67 63 63 63 63 63 63 62 59 56 54 54 54 54 55 55 54 53 52 50 48 44 40 35 32 32 32 34 38 40 39 38 36 36 37 40 48 62 77 88
76 75 70 64 62 63 63 63 63 63 60 57 55 55 56 57 58 58 58 57 56 54 53 50 45 38 33 30 29 28 29 34 37 37 37 35 35 35 36 42 51 64 76
75 72 67 62 61 63 63 63 63 62 58 56 55 56 58 59 60 60 60 59 59 58 55 50 42 35 29 27 26 25 25 30 34 36 36 35 34 34 35 38 44 53 64
73 70 64 60 60 62 63 63 63 60 57 55 56 58 60 61 62 62 63 63 63 61 55 45 35 28 24 23 23 22 23 28 33 35 36 36 35 35 35 36 39 46 54
72 68 62 59 60 62 63 63 62 59 56 55 57 60 62 63 63 64 65 66 65 59 48 36 25 19 18 19 19 19 21 26 32 34 35 35 35 35 36 36 37 40 46
71 66 60 58 60 62 63 63 61 58 56 56 58 61 63 64 65 66 68 70 66 55 40 25 14 11 13 15 15 16 18 24 31 34 35 35 36 36 36 36 37 38 40
69 64 59 57 59 62 63 62 61 58 56 56 59 62 64 65 66 68 71 72 65 50 33 19 7 6 10 12 12 14 16 22 29 34 35 35 35 36 37 37 37 38 39
69 63 58 56 58 61 62 61 60 58 56 56 59 62 65 67 68 70 72 72 62 47 31 16 5 4 8 10 11 12 15 21 28 34 36 36 36 36 37 38 38 39 39
68 63 58 55 58 60 61 61 60 59 57 57 59 63 66 68 69 71 74 73 63 48 32 17 6 2 7 9 11 11 15 20 27 34 37 38 37 37 37 37 38 39 39
68 63 57 55 57 59 60 60 60 59 58 58 60 63 66 68 69 71 74 74 65 51 36 21 9 2 4 7 9 9 13 19 26 33 38 40 39 38 38 37 37 37 38
67 62 57 54 56 58 59 59 59 59 58 58 60 62 65 67 69 70 72 73 69 57 41 27 15 6 3 5 7 7 10 16 23 32 38 42 42 41 40 38 37 36 36
66 62 56 54 55 57 58 58 58 58 58 58 59 60 63 66 68 69 70 72 72 64 51 36 22 12 6 5 6 6 7 12 20 29 38 42 44 44 43 41 39 38 37
65 61 56 53 53 55 57 57 56 57 58 58 58 58 61 64 67 69 69 71 72 70 62 48 33 20 12 7 5 5 5 8 14 24 34 41 45 46 45 44 42 40 39
65 61 56 52 52 53 55 55 55 55 56 56 56 56 58 62 65 68 70 70 71 71 69 61 48 33 20 12 8 5 4 5 10 18 28 37 43 46 47 46 45 43 41
64 60 56 52 50 51 53 54 54 54 54 54 55 55 56 59 62 65 68 69 69 69 68 67 61 50 36 23 14 8 5 4 6 13 21 31 40 45 47 48 47 45 44
Wind_Direction
325 325 325 325 323 322 322 321 317 315 314 312 309 306 303 299 296 293 290 286 284 281 278 275 271 269 265 263 261 258 251 243 236 233 233 232 231 232 233 233 233 233 234
328 327 327 326 325 325 323 320 319 319 317 314 312 310 308 306 302 299 295 291 287 283 279 275 270 266 261 259 258 258 257 251 242 235 230 229 229 228 230 231 232 231 231
330 329 329 328 327 326 324 322 322 321 320 319 319 319 318 315 312 309 306 302 295 289 283 278 272 266 260 256 254 255 256 255 251 243 234 228 227 226 226 228 230 230 229
332 331 330 330 329 327 325 325 325 324 324 325 325 324 323 321 318 316 313 310 305 299 292 285 278 270 264 257 253 252 254 253 253 251 242 233 227 225 224 225 226 228 228
333 333 332 331 329 328 327 329 328 328 328 329 328 327 325 323 321 318 315 312 309 304 298 292 285 276 268 261 255 251 251 252 252 252 249 240 232 226 223 222 224 224 225
335 334 333 332 330 329 330 331 331 331 331 331 329 327 325 323 321 319 317 314 310 306 301 295 289 282 273 264 256 251 249 250 250 252 252 247 237 230 224 220 221 222 221
336 335 334 332 331 331 333 334 334 333 332 332 330 329 327 325 324 322 320 317 315 311 306 301 293 285 277 268 259 252 248 247 248 250 252 251 243 234 227 221 218 220 220
337 336 335 333 333 334 336 336 335 334 334 334 333 331 330 328 326 324 323 321 319 317 314 308 301 292 280 270 262 254 247 245 246 248 250 251 247 237 229 223 218 217 218
337 337 335 334 336 337 338 337 337 337 336 336 335 334 332 331 329 327 325 323 321 320 319 314 308 299 285 272 262 254 248 244 243 245 248 249 247 239 230 225 220 216 216
338 337 336 337 338 339 339 339 339 339 339 338 337 337 337 335 333 330 326 323 321 320 319 317 311 303 291 277 263 253 247 243 241 242 244 246 245 241 232 225 221 218 215
339 338 338 339 340 341 341 341 341 341 341 340 341 341 340 338 335 332 328 325 322 319 317 317 313 306 296 282 266 252 244 240 239 239 240 241 242 239 232 225 222 219 216
340 340 340 340 342 343 343 342 342 343 343 343 344 343 341 339 336 333 330 327 323 320 317 314 312 306 297 284 268 252 241 237 235 235 235 236 237 236 230 224 221 220 217
342 341 341 342 344 344 345 345 344 345 345 345 346 344 342 339 337 334 332 329 325 321 317 313 309 303 294 283 269 253 239 233 230 229 229 231 232 231 228 223 220 219 218
343 342 343 344 345 346 347 347 347 347 347 348 347 345 343 341 338 336 333 330 326 322 317 311 305 297 288 277 267 253 237 227 223 222 223 224 226 227 225 223 219 217 217
344 344 344 345 347 348 348 349 349 349 349 350 349 347 345 342 340 338 336 333 329 325 320 312 303 290 278 269 261 251 234 222 216 215 216 218 220 221 222 221 217 214 214
346 345 345 346 348 350 350 351 351 351 351 351 351 349 348 346 343 341 340 338 335 331 326 317 303 282 266 258 253 247 230 218 211 209 210 212 215 217 218 217 214 212 212
347 347 346 347 350 351 352 353 354 354 353 353 353 353 351 350 348 346 345 344 342 340 336 329 309 270 250 246 244 241 227 215 207 204 205 207 210 212 213 212 209 208 208
348 348 348 348 351 353 354 355 356 355 355 354 355 356 355 354 353 352 352 350 349 348 347 343 324 246 234 234 234 232 222 213 205 200 200 203 206 209 210 208 207 206 206
350 350 349 350 352 354 356 357 357 357 356 356 357 358 358 358 358 358 357 356 357 357 357 358 351 223 224 229 232 224 215 210 203 198 198 200 203 206 208 207 206 206 206
351 351 351 351 353 355 357 358 358 358 358 358 360 1 1 2 2 2 3 3 3 4 5 7 12 217 224 233 235 221 212 208 202 198 197 197 200 203 205 206 207 208 208
353 352 352 352 354 356 358 358 359 360 0 1 2 3 4 6 6 7 8 9 9 9 10 12 16 352 245 250 251 234 217 210 205 200 198 197 197 200 202 205 207 208 209
354 354 353 353 354 357 359 359 0 1 2 3 4 5 7 9 10 11 12 14 15 15 16 18 20 16 315 280 272 253 226 214 209 204 201 199 198 198 200 203 205 206 206
354 354 354 354 355 358 359 0 1 2 4 5 6 7 9 11 13 14 16 18 20 21 21 22 23 22 9 331 304 279 245 222 215 210 206 203 201 199 199 201 202 203 203
355 355 355 355 356 358 0 1 2 3 5 7 7 8 11 13 15 17 19 21 23 25 25 25 25 24 21 9 347 316 272 235 221 216 212 208 205 203 201 201 201 201 201
355 356 356 356 358 359 1 2 3 5 7 8 7 9 12 15 17 18 21 23 24 26 27 28 28 27 24 20 9 345 307 257 230 221 216 213 210 208 205 204 202 202 202
355 356 356 357 359 0 1 3 4 6 8 9 9 11 14 16 18 21 23 25 26 27 28 29 30 30 28 25 18 5 339 294 244 226 220 216 214 212 210 208 206 204 203
Height
5775 5763 5749 5736 5721 5705 5689 5673 5657 5641 5628 5616 5604 5594 5585 5575 5567 5559 5553 5548 5544 5541 5539 5538 5537 5537 5538 5538 5539 5541 5544 5550 5558 5569 5582 5596 5608 5620 5631 5642 5653 5663 5673
5763 5750 5736 5721 5706 5690 5672 5655 5638 5624 5610 5597 5585 5574 5564 5555 5546 5539 5532 5527 5523 5519 5517 5516 5516 5517 5518 5520 5521 5523 5526 5528 5533 5542 5554 5570 5585 5593 5609 5620 5631 5643 5654
5752 5738 5724 5708 5692 5675 5656 5638 5622 5608 5594 5581 5569 5559 5549 5540 5532 5525 5517 5510 5504 5500 5497 5495 5495 5496 5498 5500 5503 5506 5509 5512 5515 5519 5528 5543 5556 5570 5586 5598 5611 5622 5633
5741 5727 5711 5695 5677 5658 5640 5623 5607 5593 5580 5568 5557 5547 5537 5528 5520 5512 5505 5498 5491 5486 5481 5478 5476 5476 5477 5480 5483 5488 5491 5495 5499 5501 5506 5516 5529 5545 5562 5576 5589 5602 5615
5731 5715 5698 5681 5662 5643 5626 5610 5596 5582 5570 5558 5546 5536 5526 5516 5507 5499 5492 5485 5479 5473 5468 5464 5460 5458 5458 5460 5463 5468 5472 5477 5481 5485 5488 5494 5504 5519 5537 5553 5566 5579 5594
5720 5704 5686 5668 5649 5631 5615 5601 5587 5574 5561 5549 5537 5526 5516 5506 5496 5488 5480 5473 5466 5460 5455 5450 5446 5443 5441 5442 5444 5448 5453 5458 5463 5467 5471 5474 5482 5495 5511 5529 5544 5558 5575
5710 5693 5676 5657 5639 5622 5606 5592 5578 5565 5553 5541 5529 5517 5505 5494 5484 5476 5468 5460 5454 5447 5441 5436 5431 5428 5426 5425 5426 5429 5434 5439 5445 5450 5453 5457 5462 5471 5486 5505 5523 5537 5554
5700 5682 5664 5646 5629 5613 5598 5584 5570 5557 5545 5532 5520 5507 5495 5484 5474 5465 5457 5449 5442 5435 5428 5421 5416 5412 5410 5409 5410 5412 5415 5421 5427 5432 5437 5441 5444 5450 5462 5481 5500 5517 5533
5690 5672 5654 5636 5619 5604 5590 5576 5562 5549 5536 5523 5511 5498 5486 5475 5465 5456 5447 5439 5431 5423 5415 5407 5401 5396 5393 5392 5393 5395 5399 5404 5410 5416 5421 5425 5429 5432 5441 5456 5475 5496 5513
5681 5663 5645 5627 5611 5597 5583 5569 5555 5541 5528 5515 5502 5490 5478 5467 5457 5448 5438 5429 5420 5411 5403 5395 5388 5382 5378 5376 5377 5380 5384 5388 5394 5400 5406 5411 5415 5419 5425 5436 5452 5472 5492
5672 5654 5636 5620 5605 5591 5576 5562 5549 5535 5521 5508 5495 5483 5471 5460 5449 5439 5428 5418 5408 5399 5390 5382 5375 5369 5364 5361 5362 5365 5369 5374 5380 5386 5393 5398 5402 5407 5412 5420 5434 5451 5471
5664 5646 5629 5613 5599 5585 5571 5556 5542 5528 5514 5501 5489 5477 5465 5453 5442 5430 5418 5407 5396 5386 5376 5368 5361 5355 5351 5348 5348 5351 5356 5361 5367 5374 5380 5387 5392 5397 5402 5409 5420 5434 5452
5657 5640 5623 5608 5594 5580 5565 5550 5536 5522 5508 5495 5483 5471 5458 5446 5433 5420 5407 5395 5383 5372 5361 5353 5346 5341 5338 5336 5336 5339 5344 5349 5355 5362 5370 5377 5383 5389 5395 5401 5409 5422 5438
5651 5634 5618 5603 5590 5575 5560 5546 5531 5516 5503 5491 5478 5465 5452 5438 5424 5409 5396 5382 5368 5355 5344 5334 5329 5326 5324 5324 5325 5327 5332 5338 5344 5352 5360 5368 5375 5381 5387 5393 5401 5413 5427
5646 5629 5614 5600 5587 5572 5557 5542 5527 5513 5499 5486 5474 5460 5445 5430 5415 5399 5384 5368 5352 5336 5323 5314 5311 5310 5311 5312 5314 5317 5322 5328 5334 5342 5351 5359 5367 5373 5379 5386 5395 5405 5417
5641 5624 5609 5596 5583 5569 5554 5539 5524 5510 5496 5483 5470 5455 5440 5424 5408 5391 5373 5355 5336 5319 5305 5297 5295 5297 5300 5302 5306 5308 5314 5319 5326 5334 5343 5352 5360 5367 5373 5381 5389 5398 5409
5636 5620 5606 5593 5579 5565 5550 5536 5521 5507 5493 5480 5466 5452 5436 5419 5401 5383 5364 5343 5322 5304 5292 5286 5285 5288 5291 5295 5299 5301 5306 5312 5319 5327 5336 5345 5353 5360 5368 5376 5384 5393 5403
5632 5617 5603 5590 5576 5562 5548 5532 5518 5504 5491 5478 5464 5449 5433 5416 5397 5377 5356 5335 5313 5296 5286 5281 5280 5283 5286 5289 5293 5296 5300 5305 5312 5321 5329 5338 5346 5354 5362 5371 5379 5388 5397
5628 5614 5600 5587 5574 5560 5545 5531 5517 5503 5490 5476 5463 5447 5431 5413 5394 5373 5353 5331 5310 5294 5284 5280 5279 5281 5283 5286 5288 5292 5295 5300 5307 5315 5323 5331 5339 5347 5356 5365 5374 5383 5391
5625 5611 5598 5585 5572 5558 5544 5530 5516 5503 5489 5475 5461 5445 5429 5411 5392 5372 5352 5330 5309 5294 5285 5281 5280 5280 5282 5284 5286 5288 5292 5296 5302 5309 5317 5325 5333 5341 5350 5359 5368 5377 5386
5623 5608 5595 5583 5570 5557 5543 5529 5516 5502 5488 5474 5459 5445 5429 5411 5394 5375 5355 5334 5314 5299 5289 5283 5282 5282 5283 5284 5285 5287 5290 5293 5298 5305 5312 5319 5327 5335 5344 5353 5362 5371 5380
5620 5605 5592 5581 5569 5556 5543 5529 5516 5502 5488 5474 5461 5446 5431 5415 5398 5380 5361 5342 5322 5306 5295 5288 5285 5284 5284 5285 5285 5286 5288 5291 5296 5301 5307 5314 5321 5330 5338 5347 5356 5365 5374
5618 5604 5591 5579 5568 5556 5543 5530 5517 5504 5490 5476 5463 5449 5435 5420 5404 5387 5369 5351 5333 5316 5303 5294 5290 5287 5286 5286 5286 5287 5288 5290 5293 5298 5304 5310 5317 5325 5333 5342 5351 5360 5369
5617 5602 5590 5578 5567 5555 5543 5530 5518 5505 5492 5479 5466 5453 5439 5424 5409 5393 5376 5360 5343 5327 5313 5302 5295 5291 5289 5288 5287 5287 5288 5289 5292 5295 5301 5307 5314 5321 5329 5337 5346 5354 5363
5615 5601 5589 5577 5566 5555 5543 5531 5519 5507 5494 5482 5470 5457 5443 5429 5414 5398 5383 5367 5351 5337 5325 5314 5304 5297 5293 5290 5289 5288 5288 5289 5290 5293 5297 5303 5310 5317 5325 5333 5341 5350 5358
5614 5600 5588 5576 5566 5555 5544 5533 5521 5509 5498 5486 5474 5462 5449 5435 5421 5407 5392 5377 5363 5350 5338 5326 5315 5305 5299 5294 5291 5289 5288 5288 5289 5291 5294 5299 5305 5312 5320 5328 5336 5344 5352